Location: Newark
(50.0821°N, 8.2414°E)
Time: 09:55:11
(UTC+00:00)

Envisat - Visible Passes

Search period start: 25 August 2019 00:00
Search period end: 04 September 2019 00:00
Orbit: 764 x 766 km, 98.1° (Epoch: 25 August)

Date Brightness Start Highest point End Pass type
(mag) Time Alt. Az. Time Alt. Az. Time Alt. Az.
27 Aug 6.2 19:20:02 10° WSW 19:21:56 12° W 19:23:52 10° WNW visible
30 Aug 6.0 19:07:40 10° WSW 19:10:32 15° W 19:13:24 10° NW visible
02 Sep 5.8 18:55:38 10° SW 18:59:07 18° W 19:02:38 10° NW visible
